| time (UTC) | temp F | wind direction | speed knots | gust knots | rain 1hr in | rain 24hr in | rain mn in | humidity % | barometer mb |
| 20260502203103 | 41 | 300 | 11.3 | 15.6 | 0.00 | 0.03 | 0.00 | 84 | 1014.1 |
| 20260502201546 | 42 | 312 | 12.2 | 14.8 | 0.00 | 0.03 | 0.00 | 84 | 1014.3 |
| 20260502200041 | 41 | 290 | 10.4 | 16.5 | 0.00 | 0.03 | 0.00 | 84 | 1014.5 |
| 20260502194547 | 41 | 313 | 13.0 | 15.6 | 0.00 | 0.03 | 0.00 | 85 | 1014.4 |
| 20260502193058 | 41 | 300 | 12.2 | 17.4 | 0.00 | 0.03 | 0.00 | 85 | 1014.6 |
| 20260502191545 | 41 | 319 | 13.9 | 17.4 | 0.00 | 0.03 | 0.00 | 84 | 1014.6 |
| 20260502190048 | 41 | 325 | 13.0 | 16.5 | 0.00 | 0.03 | 0.00 | 84 | 1014.7 |
| 20260502184550 | 41 | 313 | 12.2 | 16.5 | 0.00 | 0.03 | 0.00 | 84 | 1014.6 |
| 20260502183039 | 41 | 313 | 13.0 | 15.6 | 0.00 | 0.03 | 0.00 | 83 | 1014.5 |
| 20260502181546 | 41 | 292 | 10.4 | 14.8 | 0.00 | 0.03 | 0.00 | 84 | 1014.5 |
| 20260502163045 | 40 | 304 | 12.2 | 14.8 | 0.00 | 0.03 | 0.00 | 84 | 1014.4 |
| 20260502161549 | 40 | 322 | 12.2 | 15.6 | 0.00 | 0.03 | 0.00 | 85 | 1014.5 |
| 20260502151607 | 40 | 328 | 16.5 | 19.1 | 0.00 | 0.03 | 0.00 | 82 | 1014.6 |
| 20260502123046 | 41 | 291 | 11.3 | 17.4 | 0.00 | 0.03 | 0.00 | 83 | 1015.0 |
| 20260502121544 | 40 | 273 | 13.9 | 20.0 | 0.00 | 0.03 | 0.00 | 83 | 1015.0 |
| 20260502114540 | 38 | 250 | 5.2 | 10.4 | 0.00 | 0.03 | 0.00 | 85 | 1014.9 |
| 20260502113050 | 38 | 268 | 7.8 | 12.2 | 0.00 | 0.03 | 0.00 | 85 | 1014.8 |
| 20260502111546 | 39 | 248 | 9.6 | 15.6 | 0.00 | 0.03 | 0.00 | 86 | 1014.8 |
| 20260502110048 | 39 | 277 | 11.3 | 17.4 | 0.00 | 0.03 | 0.00 | 87 | 1014.7 |
| 20260502104544 | 39 | 272 | 12.2 | 18.2 | 0.00 | 0.03 | 0.00 | 87 | 1014.6 |
| 20260502103047 | 39 | 267 | 9.6 | 14.8 | 0.00 | 0.03 | 0.00 | 87 | 1014.4 |
| 20260502101603 | 40 | 280 | 13.0 | 25.2 | 0.00 | 0.03 | 0.00 | 89 | 1014.0 |
| 20260502064548 | 42 | 303 | 13.0 | 16.5 | 0.00 | 0.03 | 0.00 | 88 | 1012.8 |
| 20260502063042 | 41 | 311 | 10.4 | 18.2 | 0.00 | 0.03 | 0.00 | 92 | 1013.1 |
| 20260502061548 | 41 | 241 | 3.5 | 6.1 | 0.00 | 0.03 | 0.00 | 92 | 1013.0 |
| 20260502060049 | 41 | 234 | 3.5 | 5.2 | 0.00 | 0.03 | 0.00 | 93 | 1013.0 |
| 20260502054559 | 41 | 360 | 2.6 | 6.1 | 0.00 | 0.03 | 0.00 | 93 | 1012.9 |
| 20260502053045 | 41 | 226 | 3.5 | 7.8 | 0.00 | 0.03 | 0.00 | 93 | 1013.2 |
| 20260502051546 | 41 | 236 | 4.3 | 7.8 | 0.00 | 0.03 | 0.00 | 94 | 1013.2 |
| 20260502050049 | 40 | 240 | 5.2 | 7.8 | 0.00 | 0.03 | 0.00 | 94 | 1013.2 |
| 20260502044544 | 40 | 205 | 3.5 | 7.0 | 0.00 | 0.03 | 0.00 | 94 | 1013.1 |
| 20260502043056 | 40 | 360 | 3.5 | 7.0 | 0.00 | 0.03 | 0.00 | 94 | 1013.2 |
| 20260502041608 | 40 | 360 | 3.5 | 5.2 | 0.00 | 0.03 | 0.00 | 94 | 1013.1 |
| 20260502040051 | 40 | 208 | 3.5 | 6.1 | 0.00 | 0.03 | 0.00 | 94 | 1013.1 |
| 20260502034547 | 40 | 205 | 3.5 | 5.2 | 0.00 | 0.03 | 0.03 | 94 | 1013.1 |
| 20260502033043 | 39 | 360 | 2.6 | 4.3 | 0.00 | 0.03 | 0.03 | 94 | 1013.0 |
| 20260502031545 | 39 | 360 | 2.6 | 4.3 | 0.00 | 0.03 | 0.03 | 94 | 1013.1 |
| 20260502030058 | 39 | 360 | 2.6 | 4.3 | 0.00 | 0.03 | 0.03 | 93 | 1013.0 |
| 20260502024557 | 39 | 159 | 0.0 | 1.7 | 0.00 | 0.03 | 0.03 | 93 | 1013.2 |
| 20260502023112 | 39 | 360 | 0.9 | 1.7 | 0.00 | 0.03 | 0.03 | 93 | 1013.2 |
| 20260502021546 | 40 | 159 | 0.9 | 2.6 | 0.00 | 0.03 | 0.03 | 93 | 1013.1 |